MON81HR LEIB-EGBB

Flight info

Callsign MON81HR
Flight time N/A
Altitude 34000
Route EPAMA DCT MARTA DCT EBROX DCT UMURE N863 GIROM DCT AGN DCT SECHE DCT UVELI DCT CNA DCT TUPAR UN861 DIKRO UM184 KOTEM M184 HEMEL
Aircraft A321/M-SDE3FGHIRWY/LB1

Departure

Time 2026-04-30 21:45
Airport Ibiza Airport (LEIB)

Arrival

Time N/A
Airport Birmingham Airport (EGBB)
Time Latitude Longitude Altitude Speed Heading
2026-04-30 21:16 38.87513 1.37142 9 ft 0 kts 332°
2026-04-30 21:40 38.87513 1.37141 8 ft 0 kts 332°
2026-04-30 21:41 38.87517 1.37139 8 ft 1 kts 332°
2026-04-30 21:41 38.87544 1.37116 10 ft 12 kts 315°
2026-04-30 21:41 38.87522 1.37004 8 ft 14 kts 242°
2026-04-30 21:41 38.87473 1.36886 8 ft 15 kts 242°
2026-04-30 21:42 38.87402 1.36799 8 ft 15 kts 174°
2026-04-30 21:42 38.87306 1.36851 8 ft 15 kts 175°
2026-04-30 21:42 38.87242 1.36759 8 ft 15 kts 243°
2026-04-30 21:42 38.87195 1.36640 10 ft 15 kts 243°
2026-04-30 21:43 38.87145 1.36515 9 ft 16 kts 242°
2026-04-30 21:43 38.87091 1.36385 8 ft 18 kts 242°
2026-04-30 21:43 38.87014 1.36201 8 ft 25 kts 243°
2026-04-30 21:43 38.86933 1.36000 9 ft 25 kts 243°
2026-04-30 21:44 38.86855 1.35825 8 ft 14 kts 219°
2026-04-30 21:44 38.86767 1.35853 6 ft 15 kts 151°
2026-04-30 21:44 38.86723 1.35959 7 ft 18 kts 66°
2026-04-30 21:44 38.86870 1.36315 4 ft 85 kts 62°
2026-04-30 21:45 38.87265 1.37271 7 ft 155 kts 62°
2026-04-30 21:45 38.87799 1.38656 472 ft 176 kts 66°
2026-04-30 21:45 38.88277 1.40100 1448 ft 175 kts 74°
2026-04-30 21:45 38.88416 1.41670 1991 ft 185 kts 90°
2026-04-30 21:46 38.88420 1.43415 2161 ft 205 kts 88°
2026-04-30 21:46 38.88566 1.45278 2559 ft 214 kts 80°
2026-04-30 21:46 38.89134 1.47126 2798 ft 236 kts 52°
2026-04-30 21:46 38.90502 1.48403 3112 ft 256 kts 17°
2026-04-30 21:47 38.92295 1.48507 3708 ft 263 kts 355°
2026-04-30 21:47 38.94123 1.48240 4418 ft 265 kts 354°
2026-04-30 21:47 38.95952 1.47949 5161 ft 266 kts 353°
2026-04-30 21:47 38.97791 1.47654 5875 ft 267 kts 353°
2026-04-30 21:48 38.99641 1.47359 6574 ft 269 kts 353°
2026-04-30 21:48 39.01511 1.47067 7215 ft 272 kts 352°
2026-04-30 21:48 39.03380 1.46779 7817 ft 276 kts 352°
2026-04-30 21:48 39.05301 1.46486 8438 ft 280 kts 352°
2026-04-30 21:49 39.07250 1.46190 9051 ft 284 kts 352°
2026-04-30 21:49 39.09227 1.45889 9674 ft 288 kts 351°
2026-04-30 21:49 39.11230 1.45582 10263 ft 292 kts 351°
2026-04-30 21:49 39.13319 1.45258 10444 ft 312 kts 351°
2026-04-30 21:50 39.15550 1.44912 10572 ft 333 kts 351°
2026-04-30 21:50 39.17919 1.44549 10695 ft 352 kts 351°
2026-04-30 21:50 39.20406 1.44171 10963 ft 365 kts 351°
2026-04-30 21:50 39.22913 1.43790 11469 ft 369 kts 351°
2026-04-30 21:51 39.25472 1.43399 12049 ft 372 kts 351°
2026-04-30 21:51 39.28060 1.43006 12631 ft 375 kts 351°
2026-04-30 21:51 39.30672 1.42609 13208 ft 379 kts 351°
2026-04-30 21:51 39.33302 1.42207 13776 ft 382 kts 350°
2026-04-30 21:52 39.35956 1.41799 14290 ft 386 kts 350°
2026-04-30 21:52 39.38635 1.41384 14807 ft 389 kts 350°
2026-04-30 21:52 39.41335 1.40963 15327 ft 392 kts 350°
2026-04-30 21:52 39.44058 1.40542 15854 ft 395 kts 351°
2026-04-30 21:53 39.46802 1.40122 16382 ft 398 kts 351°
2026-04-30 21:53 39.49565 1.39700 16900 ft 402 kts 351°
2026-04-30 21:53 39.52352 1.39275 17419 ft 405 kts 351°
2026-04-30 21:53 39.55157 1.38844 17929 ft 408 kts 351°
2026-04-30 21:54 39.57988 1.38407 18438 ft 411 kts 351°
2026-04-30 21:54 39.60838 1.37963 18869 ft 414 kts 351°
2026-04-30 21:54 39.63714 1.37541 19301 ft 417 kts 352°
2026-04-30 21:54 39.66610 1.37151 19722 ft 420 kts 352°
2026-04-30 21:55 39.69528 1.36777 20142 ft 423 kts 352°
2026-04-30 21:55 39.72469 1.36405 20566 ft 425 kts 352°
2026-04-30 21:55 39.75420 1.36027 20974 ft 428 kts 352°
2026-04-30 21:55 39.78390 1.35642 21377 ft 430 kts 352°
2026-04-30 21:56 39.81382 1.35245 21780 ft 433 kts 352°
2026-04-30 21:56 39.84385 1.34846 22170 ft 435 kts 352°
2026-04-30 21:56 39.87404 1.34444 22550 ft 437 kts 352°
2026-04-30 21:56 39.90441 1.34040 22934 ft 440 kts 352°
2026-04-30 21:57 39.93456 1.33636 23307 ft 442 kts 352°
2026-04-30 21:57 39.96523 1.33226 23667 ft 445 kts 352°
2026-04-30 21:57 39.99610 1.32815 23977 ft 447 kts 352°
2026-04-30 21:57 40.02712 1.32402 24281 ft 449 kts 352°
2026-04-30 21:58 40.05835 1.31985 24588 ft 452 kts 352°
2026-04-30 21:58 40.08968 1.31571 24890 ft 454 kts 352°
2026-04-30 21:58 40.12123 1.31185 25193 ft 456 kts 352°
2026-04-30 21:58 40.15292 1.30830 25492 ft 458 kts 353°
2026-04-30 21:59 40.18483 1.30489 25779 ft 461 kts 353°
2026-04-30 21:59 40.21684 1.30153 26065 ft 463 kts 353°
2026-04-30 21:59 40.24900 1.29812 26352 ft 464 kts 352°
2026-04-30 22:00 40.31366 1.29109 26919 ft 468 kts 352°
2026-04-30 22:00 40.37883 1.28389 27500 ft 472 kts 352°
2026-04-30 22:00 40.41160 1.28027 27783 ft 474 kts 352°
2026-04-30 22:01 40.44456 1.27663 28065 ft 476 kts 352°
2026-04-30 22:01 40.47754 1.27298 28436 ft 475 kts 352°
2026-04-30 22:01 40.51043 1.26929 28846 ft 474 kts 352°
2026-04-30 22:01 40.54324 1.26561 29253 ft 473 kts 352°
2026-04-30 22:02 40.57603 1.26198 29654 ft 472 kts 352°
2026-04-30 22:02 40.60867 1.25839 30045 ft 471 kts 352°
2026-04-30 22:02 40.64129 1.25478 30404 ft 470 kts 352°
2026-04-30 22:02 40.67384 1.25116 30713 ft 469 kts 351°
2026-04-30 22:03 40.70632 1.24752 31025 ft 468 kts 351°
2026-04-30 22:03 40.73879 1.24385 31332 ft 468 kts 351°
2026-04-30 22:03 40.77120 1.24020 31637 ft 467 kts 351°
2026-04-30 22:03 40.80317 1.23661 31932 ft 467 kts 351°
2026-04-30 22:04 40.83555 1.23297 32222 ft 467 kts 351°
2026-04-30 22:04 40.86795 1.22935 32506 ft 467 kts 351°
2026-04-30 22:04 40.93261 1.22207 33058 ft 466 kts 351°
2026-04-30 22:05 40.96492 1.21843 33350 ft 466 kts 351°
2026-04-30 22:05 40.99725 1.21477 33652 ft 465 kts 351°
2026-04-30 22:05 41.02943 1.21114 33944 ft 464 kts 351°
2026-04-30 22:05 41.06162 1.20750 34219 ft 464 kts 351°
2026-04-30 22:06 41.09373 1.20384 34458 ft 463 kts 351°
2026-04-30 22:06 41.15786 1.19652 34935 ft 462 kts 352°
2026-04-30 22:06 41.18993 1.19289 35173 ft 461 kts 352°
2026-04-30 22:07 41.22191 1.18926 35406 ft 460 kts 352°
2026-04-30 22:07 41.25378 1.18562 35643 ft 460 kts 352°
2026-04-30 22:07 41.28524 1.18200 35872 ft 459 kts 352°
2026-04-30 22:07 41.31703 1.17834 36091 ft 459 kts 352°
2026-04-30 22:08 41.38076 1.17109 36166 ft 459 kts 352°
2026-04-30 22:08 41.44443 1.16389 36168 ft 459 kts 352°
2026-04-30 22:09 41.50801 1.15668 36169 ft 458 kts 352°
2026-04-30 22:09 41.57160 1.14930 36168 ft 459 kts 352°
2026-04-30 22:10 41.63525 1.14188 36171 ft 460 kts 352°
2026-04-30 22:10 41.69977 1.13441 36161 ft 469 kts 352°
2026-04-30 22:11 41.79759 1.12316 36152 ft 471 kts 352°
2026-04-30 22:12 41.86284 1.11563 36149 ft 470 kts 352°
2026-04-30 22:12 41.92814 1.10802 36150 ft 470 kts 352°
2026-04-30 22:13 41.99338 1.10044 36154 ft 471 kts 352°
2026-04-30 22:13 42.05837 1.09291 36171 ft 472 kts 352°
2026-04-30 22:14 42.12378 1.08525 36185 ft 472 kts 352°
2026-04-30 22:14 42.18918 1.07759 36199 ft 472 kts 352°
2026-04-30 22:15 42.25461 1.06989 36219 ft 472 kts 352°
2026-04-30 22:15 42.31997 1.06210 36232 ft 471 kts 351°
2026-04-30 22:16 42.38528 1.05428 36235 ft 471 kts 351°
2026-04-30 22:17 42.51586 1.03891 36243 ft 471 kts 351°
2026-04-30 22:17 42.61385 1.02744 36240 ft 471 kts 351°
2026-04-30 22:18 42.71169 1.01573 36239 ft 470 kts 351°
2026-04-30 22:19 42.80912 1.00415 36241 ft 470 kts 351°
2026-04-30 22:20 42.89627 0.99378 36238 ft 469 kts 351°
2026-04-30 22:20 42.99365 0.98208 36232 ft 468 kts 351°
2026-04-30 22:21 43.05856 0.97427 36229 ft 468 kts 351°
2026-04-30 22:21 43.12343 0.96649 36226 ft 468 kts 351°
2026-04-30 22:22 43.18829 0.95863 36226 ft 468 kts 351°
2026-04-30 22:22 43.25268 0.95080 36227 ft 468 kts 351°
2026-04-30 22:23 43.31754 0.94296 36226 ft 468 kts 351°
2026-04-30 22:23 43.38235 0.93499 36228 ft 468 kts 351°
2026-04-30 22:24 43.44730 0.92692 36227 ft 468 kts 351°
2026-04-30 22:24 43.51219 0.91899 36225 ft 468 kts 351°
2026-04-30 22:25 43.57699 0.91108 36223 ft 468 kts 351°
2026-04-30 22:25 43.64152 0.90304 36221 ft 468 kts 351°
2026-04-30 22:26 43.73886 0.89113 36222 ft 468 kts 351°
2026-04-30 22:27 43.80382 0.88330 36217 ft 468 kts 351°
2026-04-30 22:27 43.89989 0.86361 36213 ft 461 kts 336°
2026-04-30 22:28 43.98688 0.80902 36217 ft 458 kts 331°
2026-04-30 22:29 44.10255 0.73446 36218 ft 458 kts 332°
2026-04-30 22:31 44.30525 0.60269 36220 ft 460 kts 332°
2026-04-30 22:32 44.44988 0.50801 36214 ft 461 kts 332°
2026-04-30 22:33 44.59491 0.41167 36211 ft 462 kts 332°
2026-04-30 22:35 44.74027 0.31469 36208 ft 463 kts 332°
2026-04-30 22:36 44.86426 0.26391 36211 ft 469 kts 347°
2026-04-30 22:36 44.89637 0.25530 36210 ft 469 kts 347°
2026-04-30 22:37 45.02453 0.22136 36207 ft 470 kts 347°
2026-04-30 22:38 45.15324 0.18666 36223 ft 471 kts 347°
2026-04-30 22:39 45.24999 0.16062 36219 ft 472 kts 347°
2026-04-30 22:40 45.44388 0.10815 36217 ft 473 kts 348°
2026-04-30 22:41 45.60542 0.06408 36215 ft 474 kts 348°
2026-04-30 22:43 45.79996 0.01062 36219 ft 475 kts 348°
2026-04-30 22:44 45.92986 -0.02525 36214 ft 475 kts 348°
2026-04-30 22:45 46.12446 -0.07920 36202 ft 476 kts 348°
2026-04-30 22:47 46.31991 -0.13377 36203 ft 477 kts 348°
2026-04-30 22:48 46.44979 -0.17049 36205 ft 477 kts 348°
2026-04-30 22:49 46.64573 -0.22584 36199 ft 478 kts 348°
2026-04-30 22:51 46.84204 -0.28187 36203 ft 479 kts 348°
2026-04-30 22:52 46.94026 -0.31012 36203 ft 480 kts 348°
2026-04-30 22:53 47.07146 -0.34777 36205 ft 480 kts 348°
2026-04-30 22:53 47.16931 -0.37625 36200 ft 480 kts 348°
2026-04-30 22:55 47.33325 -0.42375 36192 ft 480 kts 348°
2026-04-30 22:56 47.46447 -0.46214 36187 ft 481 kts 348°
2026-04-30 22:57 47.62868 -0.51048 36191 ft 482 kts 348°
2026-04-30 22:58 47.76017 -0.54928 36195 ft 482 kts 348°
2026-04-30 22:59 47.95767 -0.60833 36193 ft 483 kts 348°